[[{"header":{"parameterUnit":"m.s-1","parameterCategory":1,"la1":30.2991,"la2":30.254,"lo1":-89.0895,"lo2":-89.0444,"dy":0.0017,"dx":0.0017,"nx":28,"ny":28,"refTime":"2025-08-09T21:00:00:Z","depth":0,"parameterNumber":2,"parameterNumberName":"U-component_of_WINDS"},"data":[0,0,0,0,0,0,0,0,0,0,0,0,0,0,0,0,0,0,0,0,0,0,0,0,0,0,0,0,0,0,0,0,0,0,0,0,0,0,0,0,0,0,0,0,0,0,0,0,0,0,0,0,0,0,0,0,0,0,-2.3237,-2.3238,0,-2.3413,-2.3415,-2.3417,-2.3374,-2.337,-2.3367,-2.3363,-2.3549,-2.3557,-2.3565,0,0,0,0,0,0,0,0,0,0,0,0,0,-2.2865,-2.2872,-2.3236,-2.3239,-2.3241,-2.3413,-2.3415,-2.3418,-2.3374,-2.337,-2.3366,-2.3362,-2.3547,-2.3556,-2.3566,0,0,0,0,0,0,0,0,0,0,0,0,0,-2.3032,-2.2874,-2.3236,-2.324,-2.3242,-2.3412,-2.3415,-2.3418,-2.3375,-2.337,-2.3365,-2.336,-2.3544,-2.3555,-2.3567,-2.3747,0,0,-2.3605,-2.361,0,0,0,0,0,0,0,0,-2.3023,-2.3046,-2.3237,-2.324,-2.3242,-2.3366,-2.3352,-2.3529,-2.3376,-2.3325,-2.3363,-2.3357,-2.3493,-2.3509,-2.3554,-2.3756,-2.3764,-2.3606,-2.3613,-2.3619,-2.3622,0,0,0,0,0,0,0,-2.3011,-2.3038,-2.3306,-2.324,-2.3243,-2.3234,-2.3252,-2.3386,-2.3436,-2.3329,-2.3326,-2.3347,-2.3493,-2.3542,-2.3558,-2.3766,-2.3606,-2.3617,-2.3624,-2.3629,-2.4125,-2.4131,0,0,0,0,0,0,-2.2997,-2.3029,-2.3301,-2.3312,-2.3117,-2.3245,-2.3265,-2.3332,-2.3434,-2.3445,-2.3352,-2.3345,-2.3524,-2.3543,-2.3564,-2.3782,-2.3619,-2.363,-2.3637,-2.412,-2.4127,-2.4133,0,0,0,0,0,0,-2.2989,-2.3022,-2.3294,-2.317,-2.3203,-2.3256,-2.3332,-2.3338,-2.3386,-2.3451,-2.346,-2.3392,-2.352,-2.3547,-2.3702,-2.3788,-2.3636,-2.3647,-2.4113,-2.4122,-2.413,-2.4219,0,0,0,0,0,0,-2.2979,-2.3019,-2.3087,-2.3171,-2.321,-2.3428,-2.3337,-2.3345,-2.3407,-2.34,-2.3492,-2.3502,-2.3518,-2.3684,-2.3714,-2.3802,-2.3656,-2.4105,-2.4117,-2.4127,-2.4208,-2.4229,-2.4247,0,0,0,0,0,-2.2966,-2.3106,-2.3091,-2.3124,-2.3296,-2.3432,-2.3455,-2.347,-2.3414,-2.3484,-2.3525,-2.3499,-2.3773,-2.37,-2.3734,-2.3827,-2.41,-2.4114,-2.4126,-2.42,-2.4225,-2.4247,0,0,0,0,0,0,-2.3032,-2.3117,-2.3101,-2.3273,-2.3345,-2.3425,-2.3513,-2.3496,-2.3587,-2.3577,-2.3592,-2.3614,-2.3772,-2.3814,-2.3732,-2.4006,-2.3929,-2.3949,-2.3973,-2.3998,-2.4017,-2.4005,-2.3667,0,0,0,0,0,-2.3066,-2.3168,-2.3238,-2.3382,-2.3419,-2.346,-2.352,-2.3525,-2.3601,-2.3633,-2.3685,-2.3762,-2.3866,-2.3934,-2.4032,-2.4213,-2.4234,-2.4294,-2.4313,-2.4329,-2.4348,-2.4448,-2.4476,-2.4176,-2.4176,-2.4176,0,0,-2.3139,-2.3198,-2.3262,-2.3397,-2.3454,-2.3561,-2.3486,-2.3603,-2.3683,-2.3651,-2.38,-2.3842,-2.3928,-2.4097,-2.4174,-2.4138,-2.4434,-2.4346,-2.4358,-2.4368,-2.4464,-2.4493,-2.4518,-2.4185,-2.4183,-2.4182,0,0,-2.3326,-2.338,-2.3507,-2.3565,-2.3652,-2.3678,-2.3708,-2.379,-2.3816,-2.3966,-2.3944,-2.404,-2.4217,-2.428,-2.4336,-2.4546,-2.4526,-2.4577,-2.468,-2.4778,-2.4802,-2.4823,-2.4899,-2.4926,-2.4595,-2.4595,-2.4595,0,-2.3406,-2.3565,-2.3575,-2.3693,-2.3754,-2.3728,-2.3857,-2.3914,-2.4029,-2.4072,-2.4029,-2.4251,-2.4307,-2.4491,-2.4542,-2.4587,-2.4624,-2.4568,-2.4797,-2.4818,-2.4838,-2.4912,-2.494,-2.4601,-2.46,-2.46,-2.4599,0,-2.3659,-2.377,-2.3862,-2.3973,-2.4044,-2.4167,-2.4197,-2.4268,-2.4266,-2.4297,-2.445,-2.4517,-2.4629,-2.4672,-2.4672,-2.4857,-2.4831,-2.4792,-2.4715,-2.4872,-2.4942,-2.497,-2.4609,-2.4607,-2.4605,-2.4604,0,0,-2.3896,-2.4009,-2.4043,-2.4093,-2.4186,-2.4272,-2.4395,-2.4503,-2.4564,-2.4644,-2.4748,-2.4898,-2.4863,-2.4925,-2.4932,-2.5017,-2.5182,-2.4968,-2.497,-2.5007,-2.5391,-2.5421,-2.5453,-2.5168,-2.5173,-2.5177,-2.5384,0,-2.4093,-2.4307,-2.4319,-2.4514,-2.4618,-2.4594,-2.47,-2.477,-2.4802,-2.4895,-2.493,-2.5037,-2.4981,-2.5019,-2.5102,-2.5144,-2.5259,-2.5129,-2.5267,-2.5272,-2.5248,-2.5489,-2.5522,-2.5714,-2.5411,-2.5416,-2.5419,0,-2.4351,-2.4438,-2.4643,-2.4722,-2.4765,-2.4861,-2.4961,-2.505,-2.5129,-2.5146,-2.5215,-2.521,-2.5337,-2.5253,-2.543,-2.5341,-2.5398,-2.5427,-2.5435,-2.545,-2.5357,-2.5513,-2.5776,-2.5805,-2.5462,-2.5458,-2.5455,0,-2.4505,-2.4673,-2.4818,-2.4861,-2.4956,-2.5024,-2.5067,-2.514,-2.5204,-2.5292,-2.5334,-2.5436,-2.5492,-2.5572,-2.5595,-2.5531,-2.5771,-2.5689,-2.5791,-2.5791,-2.5845,-2.5842,-2.6122,-2.5878,-2.5878,-2.5877,-2.5876,0,-2.4725,-2.4852,-2.4888,-2.4977,-2.5119,-2.5132,-2.5272,-2.5311,-2.5376,-2.5474,-2.5459,-2.5551,-2.5574,-2.5671,-2.569,-2.5834,-2.5859,-2.5878,-2.5882,-2.5881,-2.5879,-2.592,-2.5908,-2.5885,-2.5883,-2.5881,-2.588,0,-2.4922,-2.4951,-2.5107,-2.5183,-2.5206,-2.5307,-2.5373,-2.546,-2.5488,-2.5612,-2.5642,-2.5688,-2.5802,-2.5831,-2.5967,-2.598,-2.615,-2.6141,-2.6124,-2.6124,-2.6225,-2.6216,-2.6544,-2.6588,-2.6313,-2.6315,-2.6318,0,-2.5062,-2.5159,-2.5245,-2.5308,-2.5354,-2.5456,-2.5521,-2.5537,-2.5606,-2.5702,-2.5778,-2.5889,-2.5979,-2.6161,-2.6208,-2.6312,-2.6306,-2.6414,-2.6322,-2.6318,-2.631,-2.6305,-2.6316,-2.6432,-2.6435,-2.6438,-2.6439,0,-2.5307,-2.5316,-2.5409,-2.5508,-2.5586,-2.5665,-2.5741,-2.5794,-2.5821,-2.5899,-2.6013,-2.6083,-2.6221,-2.6332,-2.6437,-2.6483,-2.6467,-2.6467,-2.6497,-2.6498,-2.6485,-2.6495,-2.6173,-2.6461,-2.6458,-2.6457,-2.6456,-2.6455,-2.5481,-2.5566,-2.564,-2.5745,-2.5803,-2.5874,-2.5959,-2.5998,-2.6093,-2.6206,-2.621,-2.6335,-2.6412,-2.655,-2.6602,-2.6701,-2.6669,-2.6711,-2.6723,-2.6733,-2.6743,-2.6467,-2.672,-2.672,-2.6719,-2.6719,-2.6718,0,-2.5727,-2.5772,-2.5868,-2.5974,-2.6057,-2.6032,-2.6114,-2.6186,-2.6296,-2.6367,-2.6456,-2.6588,-2.6696,-2.675,-2.6858,-2.6927,-2.6922,-2.6955,-2.6951,-2.6962,-2.6765,-2.6729,-2.6957,-2.6957,-2.6956,-2.6956,-2.6956,-2.6956,-2.5864,-2.6008,-2.6025,-2.6198,-2.6243,-2.6365,-2.6414,-2.648,-2.6537,-2.6685,-2.6774,-2.6808,-2.6874,-2.6985,-2.7084,-2.7097,-2.7138,-2.7175,-2.7185,-2.7,-2.6976,-2.6953,-2.692,-2.7183,-2.7184,-2.7374,-2.7376,-2.7377]},{"header":{"parameterUnit":"m.s-1","parameterCategory":1,"la1":30.2991,"la2":30.254,"lo1":-89.0895,"lo2":-89.0444,"dy":0.0017,"dx":0.0017,"nx":28,"ny":28,"refTime":"2025-08-09T21:00:00:Z","depth":0,"parameterNumber":3,"parameterNumberName":"V-component_of_WINDS"},"data":[0,0,0,0,0,0,0,0,0,0,0,0,0,0,0,0,0,0,0,0,0,0,0,0,0,0,0,0,0,0,0,0,0,0,0,0,0,0,0,0,0,0,0,0,0,0,0,0,0,0,0,0,0,0,0,0,0,0,-2.0909,-2.0907,0,-2.0696,-2.0694,-2.0691,-2.0552,-2.0551,-2.055,-2.0549,-2.0323,-2.0318,-2.0313,0,0,0,0,0,0,0,0,0,0,0,0,0,-2.1187,-2.1182,-2.091,-2.0907,-2.0904,-2.0697,-2.0694,-2.0691,-2.0552,-2.0551,-2.055,-2.0549,-2.0325,-2.0319,-2.0312,0,0,0,0,0,0,0,0,0,0,0,0,0,-2.1029,-2.1181,-2.091,-2.081,-2.0799,-2.0697,-2.0693,-2.069,-2.0552,-2.0551,-2.055,-2.0549,-2.0327,-2.0319,-2.0311,-2.0289,0,0,-2.0287,-2.0284,0,0,0,0,0,0,0,0,-2.1038,-2.1019,-2.0828,-2.0817,-2.0805,-2.065,-2.0708,-2.0555,-2.0553,-2.0646,-2.0549,-2.0548,-2.0432,-2.0416,-2.0378,-2.0278,-2.0269,-2.0287,-2.0282,-2.0279,-2.0276,0,0,0,0,0,0,0,-2.1049,-2.1027,-2.0825,-2.0825,-2.0811,-2.0773,-2.0749,-2.0678,-2.0549,-2.0638,-2.0627,-2.0604,-2.0425,-2.0386,-2.0372,-2.0265,-2.0287,-2.028,-2.0275,-2.0272,-2.0131,-2.0132,0,0,0,0,0,0,-2.1077,-2.1038,-2.0832,-2.0818,-2.0921,-2.0769,-2.0742,-2.07,-2.0549,-2.0525,-2.0606,-2.0599,-2.04,-2.0381,-2.0363,-2.0324,-2.0279,-2.0271,-2.0267,-2.013,-2.0132,-2.0133,0,0,0,0,0,0,-2.1084,-2.106,-2.084,-2.0925,-2.0894,-2.0766,-2.072,-2.0697,-2.0657,-2.0525,-2.05,-2.059,-2.0398,-2.0374,-2.0308,-2.0315,-2.0268,-2.0261,-2.0129,-2.0131,-2.0132,-2.0249,0,0,0,0,0,0,-2.1092,-2.1064,-2.1057,-2.0926,-2.089,-2.0792,-2.072,-2.0694,-2.0645,-2.0634,-2.0504,-2.0481,-2.0395,-2.032,-2.03,-2.0303,-2.0255,-2.0128,-2.013,-2.0132,-2.0243,-2.0254,-2.0263,0,0,0,0,0,-2.1103,-2.1097,-2.1057,-2.1033,-2.0879,-2.0793,-2.0772,-2.0677,-2.0647,-2.0636,-2.055,-2.0485,-2.0317,-2.0315,-2.0291,-2.0291,-2.0127,-2.0129,-2.0131,-2.0239,-2.0252,-2.0262,0,0,0,0,0,0,-2.123,-2.1078,-2.1032,-2.0985,-2.0903,-2.077,-2.0754,-2.0694,-2.0617,-2.0609,-2.0491,-2.0463,-2.0408,-2.0342,-2.0342,-2.0259,-2.0214,-2.0212,-2.0304,-2.0315,-2.0324,-2.0341,-2.0248,0,0,0,0,0,-2.1253,-2.1198,-2.1067,-2.1038,-2.0999,-2.0885,-2.0843,-2.0777,-2.0686,-2.065,-2.0559,-2.0472,-2.0398,-2.0353,-2.0279,-2.0233,-2.02,-2.0221,-2.0231,-2.0239,-2.0238,-2.0205,-2.0212,-2.014,-2.014,-2.014,0,0,-2.1298,-2.1209,-2.1181,-2.1061,-2.099,-2.0933,-2.0856,-2.08,-2.0755,-2.064,-2.0573,-2.0503,-2.0396,-2.034,-2.031,-2.0284,-2.0251,-2.0242,-2.025,-2.0244,-2.0208,-2.0215,-2.0221,-2.0141,-2.0141,-2.0141,0,0,-2.1352,-2.1281,-2.1247,-2.1177,-2.1071,-2.0994,-2.0986,-2.0861,-2.0811,-2.0742,-2.0653,-2.0596,-2.0475,-2.0401,-2.0348,-2.0372,-2.0307,-2.035,-2.04,-2.0369,-2.0375,-2.0379,-2.0385,-2.0389,-2.035,-2.035,-2.035,0,-2.1422,-2.1336,-2.1237,-2.1185,-2.1133,-2.1028,-2.099,-2.0926,-2.0801,-2.0765,-2.0738,-2.0581,-2.0502,-2.0425,-2.043,-2.0392,-2.0375,-2.0365,-2.0383,-2.0386,-2.0388,-2.0392,-2.0395,-2.0356,-2.0355,-2.0355,-2.0354,0,-2.1425,-2.1366,-2.1351,-2.1234,-2.118,-2.1136,-2.1026,-2.0982,-2.092,-2.0844,-2.0772,-2.0674,-2.0576,-2.0553,-2.0491,-2.0465,-2.0452,-2.0406,-2.0358,-2.0403,-2.0404,-2.0405,-2.0364,-2.0362,-2.036,-2.0359,0,0,-2.1555,-2.1382,-2.1378,-2.1322,-2.1196,-2.1147,-2.1095,-2.1002,-2.0966,-2.0881,-2.0833,-2.0731,-2.0686,-2.0626,-2.0553,-2.0527,-2.0548,-2.0482,-2.0478,-2.0496,-2.051,-2.0545,-2.0549,-2.0504,-2.0504,-2.0504,-2.0518,0,-2.1588,-2.1495,-2.1403,-2.134,-2.1282,-2.118,-2.1135,-2.105,-2.0978,-2.0915,-2.0833,-2.0762,-2.0709,-2.0672,-2.0641,-2.0552,-2.0549,-2.055,-2.0454,-2.0452,-2.0484,-2.055,-2.0588,-2.0606,-2.0518,-2.0518,-2.0519,0,-2.1616,-2.1538,-2.1471,-2.1348,-2.132,-2.1282,-2.1187,-2.1129,-2.1029,-2.0978,-2.091,-2.0833,-2.077,-2.0729,-2.0638,-2.0641,-2.0595,-2.0546,-2.0544,-2.053,-2.0488,-2.0537,-2.061,-2.0613,-2.0519,-2.0519,-2.0519,0,-2.1715,-2.1593,-2.1536,-2.1491,-2.1347,-2.1322,-2.1259,-2.1159,-2.1107,-2.1023,-2.0988,-2.0897,-2.0846,-2.0776,-2.0675,-2.0655,-2.0593,-2.0545,-2.0545,-2.0548,-2.0537,-2.0539,-2.0602,-2.051,-2.051,-2.051,-2.051,0,-2.1762,-2.1724,-2.1578,-2.1543,-2.1496,-2.1388,-2.1343,-2.1271,-2.1182,-2.1128,-2.1033,-2.0984,-2.0855,-2.0789,-2.0709,-2.0644,-2.0622,-2.0576,-2.0555,-2.0584,-2.0589,-2.0552,-2.0547,-2.0511,-2.0511,-2.0511,-2.0511,0,-2.1864,-2.1766,-2.1696,-2.1565,-2.1531,-2.1502,-2.1387,-2.1347,-2.1268,-2.1201,-2.1178,-2.1054,-2.0971,-2.0863,-2.0746,-2.0692,-2.0635,-2.0604,-2.067,-2.0657,-2.0664,-2.0664,-2.0704,-2.0703,-2.0615,-2.0616,-2.0617,0,-2.19,-2.1869,-2.1734,-2.1693,-2.1634,-2.1568,-2.1516,-2.1406,-2.1355,-2.1237,-2.121,-2.112,-2.1043,-2.0914,-2.081,-2.0719,-2.0683,-2.0704,-2.0669,-2.0698,-2.0681,-2.0684,-2.0678,-2.0713,-2.0714,-2.0715,-2.0716,0,-2.1974,-2.1926,-2.1856,-2.1767,-2.1708,-2.1632,-2.1552,-2.1522,-2.1395,-2.1341,-2.1256,-2.1196,-2.1076,-2.0987,-2.0882,-2.0812,-2.0742,-2.0728,-2.0723,-2.0752,-2.0791,-2.0767,-2.0692,-2.0728,-2.0726,-2.0726,-2.0725,-2.0725,-2.2042,-2.2009,-2.1909,-2.1832,-2.176,-2.1687,-2.1642,-2.1558,-2.1486,-2.1382,-2.1321,-2.1237,-2.1133,-2.0985,-2.0919,-2.0849,-2.0822,-2.0816,-2.0814,-2.0814,-2.0822,-2.0803,-2.083,-2.0829,-2.0829,-2.0828,-2.0828,0,-2.2109,-2.204,-2.1971,-2.1862,-2.1801,-2.1742,-2.1649,-2.1601,-2.153,-2.144,-2.1366,-2.1266,-2.1178,-2.1068,-2.0971,-2.0936,-2.0901,-2.0914,-2.0915,-2.0899,-2.0852,-2.0866,-2.0944,-2.0944,-2.0944,-2.0944,-2.0944,-2.0944,-2.2137,-2.2077,-2.2016,-2.1917,-2.1846,-2.1766,-2.1717,-2.1647,-2.1575,-2.1469,-2.1397,-2.1326,-2.1226,-2.1121,-2.1036,-2.1005,-2.0973,-2.0996,-2.0955,-2.0913,-2.0903,-2.0893,-2.0905,-2.099,-2.099,-2.1007,-2.1008,-2.1008]}]]